Location: Most
(50.5133°N, 13.6207°E)
Time: 10:14:36
(UTC+01:00)

Oscar 11 - Pass Details

Date: 29 November 2022
Orbit: 611 x 621 km, 97.6° (Epoch: 28 January)

Event Time Altitude Azimuth Distance (km) Brightness Sun altitude
Rises 17:11:20 0° 215° (SW) 2,885 11.5 -10.0°
Reaches altitude 10° 17:14:31 10° 240° (WSW) 1,983 11.2 -10.5°
Maximum altitude 17:16:48 14° 272° (W) 1,735 10.5 -10.8°
Drops below altitude 10° 17:19:04 10° 305° (NW) 1,989 10.2 -11.2°
Sets 17:22:17 0° 330° (NNW) 2,898 10.6 -11.7°
